Change the Weather History Date:

Tuesday, October 12, 2010

  Actual Average Record
Temperature  
Mean Temperature 42 °F -  
Max Temperature 57 °F 55 °F 72 °F (2001)
Min Temperature 28 °F 29 °F 19 °F (1996)
Degree Days  
Heating Degree Days 22    
Moisture  
Dew Point 29 °F    
Average Humidity 80    
Maximum Humidity 100    
Minimum Humidity 32    
Precipitation  
Precipitation 0.01 in - - ()
Sea Level Pressure  
Sea Level Pressure 29.85 in    
Wind  
Wind Speed 1 mph (NNW)    
Max Wind Speed 9 mph    
Max Gust Speed -    
Visibility 8 miles    
Events Fog    
Averages and records for this station are not official NWS values.
T = Trace of Precipitation, MM = Missing Value Source: NWS Daily Summary

Daily Weather History Graph

Daily Weather History Graph

Search for Another Location

Airport or City:

Trip Planner

Search our weather history database for the weather conditions in past years. The results will help you decide how hot, cold, wet, or windy it might be!

Date:

Astronomy

Oct. 12, 2010 Rise Set
Actual Time 6:56 AM EDT 6:05 PM EDT
Civil Twilight 6:26 AM EDT 6:34 PM EDT
Nautical Twilight 5:53 AM EDT 7:08 PM EDT
Astronomical Twilight 5:19 AM EDT 7:42 PM EDT
Moon 12:39 PM EDT (10/12) 9:26 PM EDT (10/12)
Length of Visible Light 12h 08m
Length of Day
11h 09m
Waxing Crescent, 28% of the Moon is Illuminated
Oct 12
Waxing Crescent
Oct 14
First Quarter
Oct 22
Full
Oct 30
Last Quarter
Nov 6
New

Hourly Weather History & Observations

Time (EDT) Temp. Windchill Dew Point Humidity Pressure Visibility Wind Dir Wind Speed Gust Speed Precip Events Conditions
12:52 AM 30.9 °F - 28.9 °F 92% 29.85 in 10.0 mi Calm Calm - N/A   Clear
1:52 AM 30.9 °F - 30.0 °F 96% 29.84 in 10.0 mi Calm Calm - N/A   Clear
2:52 AM 32.0 °F - 30.0 °F 92% 29.84 in 10.0 mi Calm Calm - N/A   Mostly Cloudy
3:52 AM 28.9 °F - 27.0 °F 92% 29.84 in 10.0 mi Calm Calm - N/A   Partly Cloudy
4:52 AM 28.0 °F - 27.0 °F 96% 29.84 in 10.0 mi Calm Calm - N/A   Partly Cloudy
5:52 AM 28.9 °F - 28.0 °F 96% 29.83 in 10.0 mi Calm Calm - N/A   Scattered Clouds
6:52 AM 30.0 °F - 28.0 °F 92% 29.85 in 10.0 mi Calm Calm - N/A   Scattered Clouds
7:02 AM 30.2 °F - 28.4 °F 93% 29.82 in 10.0 mi Calm Calm - N/A   Mostly Cloudy
7:29 AM 30.2 °F - 28.4 °F 93% 29.82 in 2.0 mi Calm Calm - N/A   Mostly Cloudy
7:31 AM 30.2 °F - 28.4 °F 93% 29.82 in 1.2 mi Calm Calm - N/A   Overcast
7:36 AM 28.4 °F - 28.4 °F 100% 29.82 in 0.2 mi Calm Calm - N/A Fog Light Freezing Fog
7:50 AM 30.2 °F - 28.4 °F 93% 29.82 in 1.0 mi Calm Calm - N/A   Overcast
7:51 AM 30.0 °F - 30.0 °F 100% 29.86 in 1.2 mi Calm Calm - N/A   Overcast
7:54 AM 30.2 °F - 30.2 °F 100% 29.82 in 2.5 mi Calm Calm - N/A   Overcast
8:02 AM 30.2 °F - 30.2 °F 100% 29.82 in 5.0 mi Calm Calm - N/A   Overcast
8:26 AM 33.8 °F - 30.2 °F 87% 29.82 in 10.0 mi Calm Calm - N/A   Overcast
8:52 AM 34.0 °F - 30.9 °F 89% 29.86 in 10.0 mi Calm Calm - N/A   Overcast
9:52 AM 37.9 °F - 32.0 °F 79% 29.86 in 10.0 mi Calm Calm - N/A   Overcast
11:52 AM 52.0 °F - 30.9 °F 45% 29.83 in 10.0 mi Variable 3.5 mph - 0.01 in   Clear
12:52 PM 54.0 °F - 30.0 °F 40% 29.81 in 10.0 mi NNE 6.9 mph - N/A   Partly Cloudy
1:52 PM 57.0 °F - 28.9 °F 34% 29.79 in 10.0 mi Calm Calm - N/A   Mostly Cloudy
2:52 PM 55.0 °F - 30.0 °F 38% 29.79 in 10.0 mi NW 9.2 mph - N/A   Scattered Clouds
3:52 PM 55.0 °F - 27.0 °F 34% 29.81 in 10.0 mi NW 8.1 mph - N/A   Clear
4:52 PM 53.1 °F - 24.1 °F 32% 29.84 in 10.0 mi Variable 6.9 mph - N/A   Clear
5:52 PM 48.9 °F - 28.9 °F 46% 29.87 in 10.0 mi NNW 6.9 mph - N/A   Clear
6:52 PM 46.0 °F 44.8 °F 33.1 °F 61% 29.91 in 10.0 mi NNW 3.5 mph - N/A   Clear
7:52 PM 37.0 °F - 32.0 °F 82% 29.93 in 10.0 mi Calm Calm - N/A   Clear
8:52 PM 33.1 °F - 30.0 °F 89% 29.94 in 10.0 mi Calm Calm - N/A   Clear
9:52 PM 30.0 °F - 28.9 °F 96% 29.96 in 10.0 mi Calm Calm - N/A   Partly Cloudy
10:52 PM 30.9 °F - 28.9 °F 92% 29.96 in 10.0 mi Calm Calm - N/A   Mostly Cloudy
11:52 PM 28.9 °F - 28.0 °F 96% 29.96 in 10.0 mi Calm Calm - N/A   Partly Cloudy